Bedford Park, IL

11:27 AM CDT on September 25, 2016 (GMT -0500)
Chicago-Midway

Weather History for KMDW - June, 2014

Change the Weather History Date:

Tuesday, June 17, 2014

  Actual Average Record
Temperature  
Mean Temperature 86 °F 72 °F  
Max Temperature 93 °F 81 °F 96 °F (1987)
Min Temperature 79 °F 63 °F 42 °F (1980)
Degree Days  
Heating Degree Days 0 1  
Month to date heating degree days 2 26  
Since 1 June heating degree days 2 26  
Since 1 July heating degree days 6809 5985  
Cooling Degree Days 21 7  
Month to date cooling degree days 115 89  
Year to date cooling degree days 226 163  
Since 1 June cooling degree days 115 89  
Growing Degree Days 36 (Base 50)    
Moisture  
Dew Point 68 °F    
Average Humidity 58    
Maximum Humidity 71    
Minimum Humidity 36    
Precipitation  
Precipitation 0.00 in 0.13 in 3.16 in (1996)
Month to date precipitation 2.18 2.44  
Year to date precipitation 13.47 16.93  
Sea Level Pressure  
Sea Level Pressure 29.84 in    
Wind  
Wind Speed 14 mph (SSW)    
Max Wind Speed 29 mph    
Max Gust Speed 37 mph    
Visibility 10 miles    
Events      
T = Trace of Precipitation, MM = Missing Value Source: NWS Daily Summary

Daily Weather History Graph

Daily Weather History Graph

Search for Another Location

Airport or City:

Trip Planner

Search our weather history database for the weather conditions in past years. The results will help you decide how hot, cold, wet, or windy it might be!

Date:

Astronomy

Jun. 17, 2014 Rise Set
Actual Time 5:15 AM CDT 8:28 PM CDT
Civil Twilight 4:41 AM CDT 9:02 PM CDT
Nautical Twilight 3:57 AM CDT 9:46 PM CDT
Astronomical Twilight 3:04 AM CDT 10:39 PM CDT
Moon 11:52 PM CDT (6/17) 10:33 AM CDT (6/17)
Length of Visible Light 16h 21m
Length of Day
15h 12m
Waning Gibbous, 73% of the Moon is Illuminated
Jun 17
Waning Gibbous
Jun 19
Last Quarter
Jun 27
New
Jul 5
First Quarter
Jul 12
Full

Hourly Weather History & Observations

Time (CDT) Temp. Heat Index Dew Point Humidity Pressure Visibility Wind Dir Wind Speed Gust Speed Precip Events Conditions
12:51 AM 82.0 °F 85.5 °F 69.1 °F 65% 29.85 in 10.0 mi South 13.8 mph - N/A   Overcast
1:51 AM 82.0 °F 85.5 °F 69.1 °F 65% 29.86 in 10.0 mi SSW 12.7 mph 21.9 mph N/A   Overcast
2:51 AM 81.0 °F 84.1 °F 69.1 °F 67% 29.86 in 10.0 mi South 16.1 mph 25.3 mph N/A   Overcast
3:51 AM 80.1 °F 82.9 °F 69.1 °F 69% 29.84 in 10.0 mi South 16.1 mph 26.5 mph N/A   Overcast
4:51 AM 80.1 °F 82.9 °F 69.1 °F 69% 29.81 in 10.0 mi South 19.6 mph 27.6 mph N/A   Mostly Cloudy
5:51 AM 80.1 °F 82.9 °F 69.1 °F 69% 29.83 in 7.0 mi South 24.2 mph 32.2 mph N/A   Overcast
6:51 AM 80.1 °F 82.9 °F 69.1 °F 69% 29.82 in 10.0 mi SSW 18.4 mph 29.9 mph N/A   Overcast
7:51 AM 80.1 °F 83.2 °F 70.0 °F 71% 29.84 in 10.0 mi SW 18.4 mph 27.6 mph N/A   Overcast
8:51 AM 80.1 °F 83.2 °F 70.0 °F 71% 29.82 in 10.0 mi SW 21.9 mph 29.9 mph N/A   Overcast
9:51 AM 81.0 °F 84.1 °F 69.1 °F 67% 29.74 in 10.0 mi SSW 24.2 mph 34.5 mph N/A   Overcast
10:51 AM 84.9 °F 88.8 °F 69.1 °F 59% 29.83 in 10.0 mi West 16.1 mph 26.5 mph N/A   Overcast
11:04 AM 84.9 °F 88.8 °F 69.1 °F 59% 29.87 in 10.0 mi West 12.7 mph - N/A   Overcast
11:51 AM 87.1 °F 90.6 °F 68.0 °F 53% 29.84 in 10.0 mi WSW 17.3 mph - N/A   Mostly Cloudy
12:51 PM 87.1 °F 90.6 °F 68.0 °F 53% 29.85 in 10.0 mi WNW 9.2 mph - N/A   Scattered Clouds
1:51 PM 88.0 °F 90.7 °F 66.9 °F 49% 29.85 in 10.0 mi West 8.1 mph 16.1 mph N/A   Partly Cloudy
2:51 PM 91.0 °F 95.2 °F 68.0 °F 47% 29.84 in 10.0 mi SW 10.4 mph - N/A   Partly Cloudy
3:51 PM 91.9 °F 95.9 °F 68.0 °F 45% 29.84 in 10.0 mi WSW 12.7 mph - N/A   Partly Cloudy
4:51 PM 93.0 °F 97.4 °F 68.0 °F 44% 29.84 in 10.0 mi SSW 13.8 mph - N/A   Scattered Clouds
5:51 PM 91.9 °F 97.4 °F 70.0 °F 48% 29.84 in 10.0 mi SSW 12.7 mph - N/A   Scattered Clouds
6:51 PM 90.0 °F 96.4 °F 71.1 °F 54% 29.84 in 10.0 mi SW 9.2 mph - N/A   Scattered Clouds
7:51 PM 89.1 °F 96.0 °F 72.0 °F 57% 29.85 in 10.0 mi SW 6.9 mph - N/A   Mostly Cloudy
8:51 PM 82.4 °F 83.9 °F 64.4 °F 54% 29.91 in 10.0 mi East 8.1 mph - N/A   Mostly Cloudy
9:51 PM 81.0 °F 82.2 °F 63.0 °F 54% 29.90 in 10.0 mi East 5.8 mph - N/A   Mostly Cloudy
10:51 PM 82.0 °F 83.8 °F 64.9 °F 56% 29.89 in 10.0 mi ESE 5.8 mph - N/A   Mostly Cloudy
11:51 PM 84.0 °F 89.0 °F 71.1 °F 65% 29.88 in 10.0 mi SSW 13.8 mph - N/A   Scattered Clouds